Location: Wildlife_Club
(35.6000°N, 81.4330°W)
Time: 14:26:55
(UTC-04:00)

A-11 Canister half - Pass Details

Date: 25 June 2019
Orbit: 1514 x 1686 km, 47.2° (Epoch: 22 August)

Event Time Altitude Azimuth Distance (km) Brightness Sun altitude
Rises 16:26:02 0° 302° (WNW) 4,820 12.1 49.8°
Reaches altitude 10° 16:29:14 10° 305° (NW) 3,809 11.7 49.2°
Maximum altitude 16:38:51 69° 29° (NNE) 1,647 9.8 47.2°
Drops below altitude 10° 16:48:07 10° 112° (ESE) 3,684 10.7 45.4°
Sets 16:51:09 0° 115° (ESE) 4,655 11.1 44.7°
